This is the latest recevied weather packets stored in our database for station/object OK6DJ-6. If no packets are shown the sender has not sent any weather packets the latest 1 day(s).
| Time | Temp. | Humidity | Pressure | Rain* | Wind** | Luminosity | Snow |
|---|---|---|---|---|---|---|---|
| 1788499876 | 18.89° C | 71% | 1018.7 hPa | 0 mm | 0.45 m/s, 0° | - | - |
| 1788499276 | 18.89° C | 73% | 1018.7 hPa | 0 mm | 0.45 m/s, 0° | - | - |
| 1788498676 | 18.33° C | 75% | 1018.7 hPa | 0 mm | 0.45 m/s, 0° | - | - |
| 1788498076 | 18.33° C | 75% | 1018.7 hPa | 0 mm | 0 m/s | - | - |
| 1788497476 | 17.78° C | 76% | 1018.8 hPa | 0 mm | 0 m/s | - | - |
| 1788496876 | 17.78° C | 77% | 1018.7 hPa | 0 mm | 0.45 m/s, 0° | - | - |
| 1788496276 | 17.78° C | 76% | 1018.7 hPa | 0 mm | 0.45 m/s, 0° | - | - |
| 1788495676 | 17.22° C | 78% | 1018.6 hPa | 0 mm | 0.45 m/s, 0° | - | - |
| 1788495076 | 17.22° C | 77% | 1018.6 hPa | 0 mm | 0.45 m/s, 0° | - | - |
| 1788494476 | 16.11° C | 82% | 1018.7 hPa | 0 mm | 0 m/s | - | - |
| 1788493876 | 16.67° C | 81% | 1018.7 hPa | 0 mm | 0 m/s | - | - |
| 1788493276 | 16.11° C | 83% | 1018.9 hPa | 0 mm | 0 m/s | - | - |
| 1788492676 | 16.11° C | 84% | 1018.8 hPa | 0 mm | 0 m/s | - | - |
| 1788492076 | 15.56° C | 86% | 1018.9 hPa | 0 mm | 0 m/s | - | - |
| 1788491476 | 15.56° C | 88% | 1018.9 hPa | 0 mm | 0 m/s | - | - |
| 1788490876 | 15° C | 90% | 1018.9 hPa | 0 mm | 0 m/s | - | - |
| 1788490276 | 15° C | 90% | 1019.1 hPa | 0 mm | 0 m/s | - | - |
| 1788489676 | 15° C | 91% | 1019 hPa | 0 mm | 0 m/s | - | - |
| 1788489076 | 15° C | 90% | 1019.2 hPa | 0 mm | 0 m/s | - | - |
| 1788488476 | 15° C | 91% | 1019.2 hPa | 0 mm | 0 m/s | - | - |
| 1788487876 | 15° C | 91% | 1019.1 hPa | 0 mm | 0 m/s | - | - |
| 1788487276 | 15° C | 90% | 1019.1 hPa | 0 mm | 0 m/s | - | - |
| 1788486676 | 15.56° C | 89% | 1019.1 hPa | 0 mm | 0 m/s | - | - |
| 1788486076 | 15.56° C | 90% | 1019 hPa | 0 mm | 0 m/s | - | - |
| 1788485476 | 15° C | 91% | 1019 hPa | 0 mm | 0 m/s | - | - |
* Rain latest hour (hover to see other rain measurements)
** Current wind speed in m/s (hover to see current wind gust speed)